User: anonymous   Login
Location: Unspecified
(0.0000°N, 0.0000°E)
Time: 14:23:26
(UTC+00:00)
Language:

Cosmos 2334 - Orbit

View from above orbital plane
View from above orbital plane
View from above satellite
View from above satellite

Ground track
Ground track

The orbit data is extracted from the following two-line orbital elements,

1 24304U 96052A   18020.94420988 +.00000017 +00000-0 +20610-5 0  9992
2 24304 082.9334 191.7889 0030251 160.7178 003.4038 13.73549312071260
Epoch (UTC): 20 January 2018 22:39:39
Eccentricity: 0.0030251
inclination: 82.9334°
perigee height: 964 km
apogee height: 1009 km
right ascension of ascending node: 191.7889°
argument of perigee: 160.7178°
revolutions per day: 13.73549312
mean anomaly at epoch: 3.4038°
orbit number at epoch: 7126

The dashed part of the orbit path shows where the satellite is in the earth's shadow,  

DLR